Location: Rounton
(54.4000°N, 1.3500°W)
Time: 23:05:24
(UTC+00:00)

Vanguard 1 - Pass Details

Date: 07 December 2021
Orbit: 652 x 3830 km, 34.2° (Epoch: 17 January)

Event Time Altitude Azimuth Distance (km) Brightness Sun altitude
Rises 21:11:37 0° 194° (SSW) 6,614 14.2 -45.8°
Enters shadow 21:15:38 - 185° (S) 6,179 13.9 -46.3°
Reaches altitude 10° 21:17:06 10° 182° (S) 6,047 - -46.5°
Maximum altitude 21:30:58 24° 138° (SE) 5,676 - -48.2°
Drops below altitude 10° 21:46:30 10° 96° (E) 6,884 - -50.0°
Sets 21:53:17 0° 85° (E) 7,717 - -50.7°
